Wind_Speed
21 20 20 20 19 17 15 15 15 15 14 13 13 12 12 11 10 10 9 8 7 7 6 6 7 7 8 9 11 12 13 14 16 17 18 20 21 22 22 24 25 26 27 27 27 27 27 26 25 24 23 24 26 27 29 30 31 32 34 34 35 36 38 39 40 40 41 41 41 41 41 40 38 37 35 33 32 30 29 27 26 26 26 25 24 24 24 23
20 20 20 20 19 17 16 15 15 15 14 13 13 12 11 11 10 9 8 7 6 6 5 6 6 7 8 9 10 12 13 14 15 16 17 19 20 21 22 23 25 26 26 27 27 27 27 26 25 24 22 22 23 25 27 28 29 30 31 31 32 34 36 37 38 38 39 39 39 39 39 39 38 38 37 35 33 31 29 26 23 22 23 24 24 24 24 23
20 20 20 20 19 17 16 15 15 15 14 13 12 12 11 10 9 8 7 7 6 6 5 5 5 6 8 9 10 11 11 12 14 15 17 18 20 21 22 23 24 25 26 26 26 26 26 26 26 25 23 21 22 23 26 27 28 28 29 29 30 31 33 34 35 36 37 37 36 36 36 36 37 37 36 36 35 33 30 27 24 22 21 21 22 22 22 20
20 20 20 20 19 17 16 15 15 15 14 13 12 11 10 9 8 7 7 7 6 6 6 5 5 6 7 8 9 10 10 11 12 14 15 17 18 20 21 22 23 25 26 26 26 26 26 26 26 25 24 22 21 22 24 26 26 27 27 27 28 29 30 31 32 33 34 35 34 33 33 34 34 34 34 34 34 32 31 29 27 26 24 22 22 21 19 17
20 20 21 20 19 17 16 15 14 14 14 13 12 11 10 8 8 7 7 7 7 7 7 7 7 7 7 8 9 9 10 10 11 12 14 16 17 18 19 21 22 23 24 25 26 26 26 26 26 25 24 22 21 22 23 24 24 25 25 25 26 26 27 28 29 30 31 32 32 31 31 31 31 31 31 31 31 30 30 29 29 28 28 27 25 22 19 16
20 20 21 20 19 17 16 15 14 14 13 13 12 10 9 8 8 7 7 7 7 7 7 8 8 8 8 8 8 9 9 9 9 11 13 14 15 16 18 19 20 21 22 23 24 25 26 26 26 25 24 23 22 22 23 23 23 23 23 23 23 24 25 25 26 27 28 28 29 30 30 29 30 30 30 29 29 28 28 27 27 27 28 28 27 25 22 19
20 20 20 20 19 18 16 15 14 14 13 13 12 10 9 9 8 8 8 8 8 8 8 8 8 8 8 8 8 8 7 8 8 10 11 13 14 14 16 17 18 19 20 21 22 23 24 25 25 25 24 23 22 22 22 22 22 21 21 21 21 22 23 23 24 25 25 25 26 27 28 28 29 29 29 29 28 28 27 27 26 26 26 27 27 26 24 22
20 20 20 20 19 18 16 15 14 13 13 13 12 11 10 10 9 8 8 8 8 9 8 8 8 8 8 7 7 6 6 6 7 8 9 11 12 13 13 15 16 17 18 19 20 21 22 23 24 24 24 24 23 22 22 22 20 20 20 20 19 19 21 21 22 22 23 23 23 24 25 26 27 28 29 29 29 29 28 28 27 26 26 26 25 25 24 23
20 20 20 20 19 18 17 15 15 14 13 13 12 12 11 10 9 9 9 9 9 8 8 8 8 7 7 6 6 5 5 5 6 7 8 9 10 11 12 13 14 15 16 17 19 20 20 21 22 23 23 23 23 22 22 22 20 19 19 19 18 17 18 20 21 21 22 22 22 22 23 24 25 27 28 29 29 29 29 28 28 27 26 26 25 24 23 23
19 19 20 19 19 18 17 16 15 15 14 13 13 12 11 10 9 10 10 10 10 9 8 8 7 6 6 5 4 4 4 4 5 5 6 7 8 9 11 12 13 14 15 16 17 18 19 19 20 21 21 22 22 22 22 22 20 18 17 17 16 16 16 17 19 20 21 21 21 21 21 22 23 25 26 27 28 28 28 28 28 27 27 26 25 24 23 22
19 19 19 19 19 19 18 17 16 15 14 14 13 12 11 10 10 10 11 11 10 9 9 8 7 6 5 4 3 3 3 3 3 3 4 5 6 8 9 10 12 13 14 15 16 16 17 18 18 19 20 20 21 21 22 22 21 20 17 15 14 14 14 15 16 18 19 20 20 20 19 19 20 22 24 25 26 27 27 27 27 27 26 25 24 23 22 22
18 19 19 19 19 19 18 17 17 16 15 14 13 12 11 11 11 12 12 11 11 11 10 10 9 7 6 5 4 3 3 3 2 2 2 3 5 6 8 9 10 12 13 14 15 16 16 17 17 18 18 19 19 20 20 21 22 21 19 16 13 12 12 13 14 15 17 18 19 19 18 18 18 19 21 23 24 25 25 26 26 26 26 25 24 23 22 21
18 18 19 18 18 19 19 18 17 16 15 15 14 13 12 12 12 13 13 12 12 11 11 11 10 8 7 6 5 4 4 4 2 1 0 2 4 6 7 8 9 11 12 14 15 16 16 17 17 17 17 17 17 18 18 19 21 21 20 18 15 13 12 12 14 14 15 16 17 18 17 17 18 18 19 21 22 23 24 24 25 25 25 25 24 23 23 22
19 18 18 18 18 19 19 19 18 17 16 16 15 14 14 13 13 14 13 13 13 12 12 12 11 9 8 7 7 6 6 5 4 3 2 2 4 6 7 8 9 11 12 14 15 16 17 17 17 17 17 16 16 16 16 17 19 20 20 20 18 15 13 12 13 14 14 15 16 17 17 17 18 19 19 20 21 22 22 23 23 23 24 24 23 23 23 22
19 19 18 18 18 19 19 20 19 18 17 16 16 15 15 14 14 15 14 14 14 13 13 13 12 11 10 9 8 7 7 7 6 5 3 3 4 6 7 9 9 11 12 14 15 16 17 17 17 17 17 16 15 15 15 16 17 18 19 19 19 18 17 15 14 13 14 14 15 17 17 18 18 19 20 21 22 22 22 21 22 22 23 23 23 22 22 21
20 20 19 19 19 19 19 20 20 19 18 17 17 16 15 15 15 15 15 15 15 14 14 14 14 12 11 10 10 9 9 8 7 6 5 4 4 6 7 9 10 11 12 14 15 16 17 17 18 18 17 16 15 15 15 15 16 16 17 18 18 19 19 18 16 15 14 14 15 16 17 19 20 20 20 21 22 22 21 20 20 21 22 22 21 21 20 20
21 20 20 20 19 19 19 20 20 20 19 18 17 16 16 16 16 16 16 16 16 16 15 15 15 14 13 12 11 10 10 9 9 8 7 6 5 6 7 8 10 10 12 13 14 15 16 17 17 18 18 18 17 16 15 15 15 15 15 16 16 17 18 18 18 16 15 14 15 16 17 19 21 21 21 21 22 23 22 21 20 20 20 21 20 20 19 19
21 21 21 20 20 20 19 19 20 20 20 19 18 17 17 17 17 17 17 17 18 17 17 16 16 15 14 14 13 12 12 11 10 9 9 8 7 7 8 9 10 10 11 12 13 14 14 15 16 17 17 18 18 18 17 16 15 14 14 14 14 15 15 16 17 17 16 15 15 16 17 18 20 21 22 23 24 24 24 23 22 20 19 19 20 19 19 19
21 22 22 21 21 20 20 20 20 20 20 19 19 18 18 17 18 18 18 18 19 19 18 17 17 16 16 15 14 14 13 12 11 11 10 10 9 9 9 9 10 11 11 12 12 13 13 13 13 15 16 17 17 18 18 17 16 15 14 14 14 14 14 15 15 16 17 17 17 17 17 18 19 21 22 24 25 25 25 25 24 23 21 20 20 20 20 19
22 22 22 22 22 21 21 21 21 20 20 20 20 19 19 18 19 19 19 19 20 20 20 19 18 18 17 17 16 15 15 14 13 12 12 11 11 11 11 11 12 12 12 13 13 13 13 12 12 13 14 15 16 16 17 17 17 17 16 16 16 16 15 15 15 16 16 17 18 18 18 18 19 20 22 23 25 26 26 26 26 25 24 23 23 22 22 21
22 22 22 22 22 22 22 22 22 21 21 21 20 20 20 20 20 21 21 21 21 22 21 21 20 19 19 19 18 18 17 16 15 14 14 13 13 13 13 13 13 14 14 14 15 15 14 14 14 14 14 15 15 16 16 16 16 16 16 17 17 18 18 17 16 16 17 17 18 18 19 20 20 20 21 23 24 25 26 27 27 27 26 26 25 25 25 24
22 23 23 23 23 23 23 23 22 22 22 22 22 22 22 21 22 22 22 22 23 23 23 23 22 21 21 20 20 20 19 17 17 16 16 16 15 15 16 16 16 16 16 16 17 17 17 17 17 17 16 17 17 18 18 18 17 16 16 16 16 17 18 19 18 18 18 18 19 19 20 20 21 21 21 22 23 24 25 26 27 28 28 28 28 28 28 28
22 23 23 23 24 24 24 24 24 24 23 23 23 23 23 23 24 24 24 24 25 25 25 24 24 23 23 22 22 21 21 19 19 18 18 18 17 18 18 18 19 18 18 19 19 20 20 20 20 20 19 19 20 21 21 21 20 19 17 16 15 16 17 18 19 20 19 19 20 21 22 21 21 22 22 23 23 24 25 26 27 28 28 28 29 29 30 30
22 23 24 24 25 25 25 25 25 25 25 25 25 25 25 26 26 26 27 26 26 27 27 27 26 25 25 25 24 23 22 22 21 21 20 20 20 20 21 21 21 21 21 21 22 22 22 23 23 23 22 23 23 24 24 24 24 23 22 19 17 16 16 17 18 20 21 21 21 22 24 25 24 24 24 24 25 25 26 27 28 28 29 29 30 31 31 32
21 23 24 25 26 26 26 26 26 27 27 27 27 27 27 28 28 28 29 29 28 29 30 29 28 28 27 27 26 26 25 24 24 23 23 23 22 23 23 23 23 23 23 24 24 25 25 25 25 25 25 25 25 26 27 27 27 27 26 24 22 20 19 19 18 20 21 22 22 22 23 27 28 27 26 26 26 27 28 28 29 30 30 31 31 32 33 33
22 23 24 26 26 27 27 28 28 28 28 29 29 29 29 30 30 30 31 31 31 31 31 31 30 30 29 29 29 28 28 27 26 26 25 25 25 25 25 25 25 25 26 26 26 27 27 27 27 27 27 27 27 28 29 30 30 30 30 29 27 25 23 22 21 21 21 22 23 23 22 25 29 30 29 28 28 28 29 30 31 32 32 33 33 34 34 35
23 23 24 26 27 28 28 29 29 30 30 30 30 31 31 31 32 32 33 33 33 33 33 33 32 32 31 31 31 31 30 30 29 29 28 27 27 27 27 27 27 27 28 29 28 29 29 29 30 30 29 29 30 30 31 32 32 32 33 32 31 30 28 26 24 23 22 22 24 24 23 24 27 31 31 29 29 29 31 32 32 33 34 34 35 36 36 37
26 25 25 26 27 28 29 29 30 30 31 31 31 32 32 32 33 33 34 34 35 35 35 35 34 34 33 33 33 33 33 33 32 32 31 30 29 29 29 29 29 30 31 31 31 31 32 32 32 32 32 32 32 33 34 34 34 35 35 35 35 34 32 31 28 26 24 24 25 26 25 24 26 32 33 31 31 32 32 33 34 34 35 36 37 38 38 39
30 28 27 27 27 29 30 30 31 31 31 32 32 33 33 33 34 34 35 35 36 36 36 37 36 36 36 36 36 36 36 35 35 35 34 33 33 32 32 32 32 33 33 33 33 34 34 34 34 34 34 34 35 35 36 37 37 37 38 38 38 37 36 35 34 31 28 27 27 27 27 26 27 32 36 33 33 34 34 35 36 36 37 37 38 39 40 41
34 32 31 29 29 29 31 31 32 32 32 32 33 33 34 34 35 35 36 36 36 37 37 38 38 38 38 38 38 39 39 39 38 38 38 37 37 36 36 36 36 36 36 36 36 36 37 37 37 38 37 37 37 38 39 40 40 40 40 40 40 39 39 39 38 36 33 31 31 30 29 29 29 33 37 36 35 36 36 37 38 38 38 39 40 41 42 43
37 36 35 33 32 31 32 33 33 33 33 34 34 34 35 36 36 37 37 36 37 38 39 40 40 40 40 41 41 42 42 42 42 41 41 41 40 40 39 39 38 39 39 39 39 39 40 41 41 41 40 40 41 41 42 43 43 43 43 42 42 42 41 42 41 41 39 35 34 34 33 31 32 35 37 38 38 38 39 40 40 40 41 41 41 42 43 44
38 39 38 37 36 35 34 34 35 35 35 35 36 36 36 37 38 38 38 38 38 40 41 41 41 42 42 43 43 44 44 44 45 44 44 44 44 43 43 42 42 42 42 42 42 42 43 44 45 44 44 43 44 44 45 46 46 46 47 45 44 44 44 44 44 44 44 41 37 37 36 35 36 38 39 40 41 41 42 42 43 43 44 44 44 44 45 46
38 39 40 41 40 39 38 37 37 37 37 38 38 38 38 39 40 40 40 40 40 42 43 43 43 44 44 44 45 46 46 47 47 47 47 47 47 46 47 46 46 46 45 45 45 46 46 47 47 47 47 47 48 48 48 48 49 49 50 49 48 48 46 46 47 47 47 45 41 40 40 38 39 40 41 43 43 44 44 45 46 46 47 47 46 46 47 48
39 40 41 42 43 42 42 41 40 39 39 40 41 41 41 41 42 42 43 43 43 44 45 46 46 46 46 47 47 48 48 49 49 50 50 50 50 50 50 50 50 50 49 49 48 49 49 50 50 50 50 50 51 52 52 52 51 51 52 52 51 51 50 49 50 50 50 48 44 42 43 42 42 42 43 46 48 47 47 47 48 49 49 49 49 49 50 51
41 42 42 43 44 45 45 45 44 43 42 42 43 43 44 44 44 45 45 45 46 47 48 48 49 49 49 50 50 51 51 51 51 52 52 52 52 53 53 53 53 54 53 52 51 51 53 52 52 53 53 53 55 55 55 55 54 53 54 54 53 54 54 53 53 52 52 50 46 44 45 45 45 45 45 49 52 51 51 51 51 51 51 51 52 52 53 54
44 44 44 45 45 46 47 47 48 47 47 46 46 46 46 47 47 47 47 48 49 49 51 51 51 52 52 52 53 53 53 53 53 55 54 55 55 55 56 57 57 57 57 56 55 54 55 55 55 56 56 56 57 57 57 58 57 56 56 56 56 57 58 57 56 54 53 52 48 45 46 47 47 47 48 53 56 55 55 55 55 54 54 54 55 55 56 57
44 45 46 47 47 48 48 49 50 50 50 50 50 49 49 49 49 50 50 51 51 52 53 54 54 55 55 56 56 56 56 56 56 57 57 57 57 57 59 60 60 60 60 60 59 58 58 58 57 58 59 58 59 59 59 59 60 60 59 58 59 60 60 59 58 56 55 53 49 47 46 47 50 50 50 55 59 59 59 59 58 58 58 58 58 59 60 61
41 44 46 47 49 50 50 51 51 52 53 53 53 53 53 52 52 52 52 53 54 55 56 56 57 58 58 59 59 59 60 60 59 60 60 60 60 60 62 63 63 63 63 63 63 62 62 61 60 60 61 61 61 61 61 61 62 63 62 60 61 61 61 60 58 57 56 54 51 49 47 47 52 54 53 56 60 62 62 62 62 62 62 62 62 63 64 65
37 39 41 44 46 49 51 52 53 54 54 55 55 56 56 56 56 55 55 55 56 57 58 59 59 60 61 62 62 62 63 63 62 63 63 62 63 64 65 66 66 66 67 67 66 65 65 65 63 62 62 64 64 63 64 63 63 64 64 62 62 62 62 61 57 56 57 56 52 51 49 47 51 54 56 60 63 64 64 64 65 65 65 65 66 67 68 68
37 37 38 39 41 44 47 49 52 54 55 56 57 58 58 59 59 59 59 59 59 59 60 61 61 62 63 63 65 64 64 65 65 65 66 65 66 67 68 68 68 68 69 70 69 69 68 68 67 66 64 66 66 64 65 66 65 65 65 64 63 62 63 62 59 56 58 58 56 54 51 50 52 53 57 64 67 66 66 66 67 67 67 68 69 70 71 71
38 39 39 39 39 40 42 44 47 50 53 55 57 58 60 61 61 61 61 62 62 62 62 63 63 64 64 65 66 67 66 67 68 68 68 68 69 70 70 69 71 71 71 71 71 71 71 70 69 69 67 67 67 65 66 68 67 66 66 65 64 64 63 63 62 60 59 60 60 60 55 53 55 56 60 67 69 68 69 69 69 69 70 71 71 72 73 73
41 41 42 42 41 41 41 42 44 46 48 50 53 56 58 60 62 63 63 64 64 64 65 66 66 67 67 67 68 68 68 68 69 70 70 70 70 71 71 71 72 72 73 73 72 72 73 72 70 70 69 68 68 66 67 68 69 69 68 67 66 66 66 66 66 64 63 62 63 64 61 57 59 61 65 70 72 71 71 71 71 72 72 73 74 75 76 75
43 44 45 45 45 45 44 45 45 46 46 48 49 52 54 56 59 61 63 64 65 66 67 68 68 69 69 70 70 71 71 71 71 71 72 72 72 72 73 73 73 74 74 73 73 73 74 73 71 71 71 70 69 69 69 70 70 71 71 70 70 70 70 70 70 69 68 66 66 67 65 63 65 65 68 74 75 74 74 73 74 75 75 76 76 76 77 76
46 46 47 47 48 48 48 48 48 48 49 49 49 51 52 53 55 57 59 61 63 65 67 69 70 70 71 72 72 73 73 73 73 74 74 75 75 75 75 76 76 76 76 76 75 75 76 75 74 73 74 73 72 72 73 73 73 74 74 73 73 73 74 74 74 74 72 70 71 72 68 68 71 70 71 76 77 77 77 76 77 78 77 78 78 78 77 76
50 50 50 50 50 51 51 51 51 51 52 52 52 53 53 54 55 56 57 59 60 62 64 67 68 70 71 72 73 74 75 75 75 75 75 76 77 77 77 78 78 78 79 79 78 78 78 77 76 76 76 75 74 75 77 76 75 76 77 76 76 77 77 77 78 78 76 74 76 76 73 74 77 76 76 78 79 79 80 79 79 79 78 78 78 78 77 77
54 54 54 55 55 54 54 54 54 54 55 55 56 56 57 56 57 57 58 59 61 61 62 64 65 67 68 70 72 74 75 76 77 77 77 77 78 78 78 79 79 80 80 80 80 80 79 78 77 77 77 76 76 77 79 78 77 77 77 78 78 78 78 79 80 79 79 79 77 77 79 79 78 80 82 80 79 80 81 80 79 79 79 79 78 77 77 77
57 57 58 58 59 59 59 59 59 59 59 59 59 60 61 60 60 61 61 62 62 63 63 64 65 66 67 69 70 71 73 75 76 76 77 78 78 78 78 79 80 81 82 82 82 82 81 79 78 79 79 78 78 78 80 80 79 78 79 78 78 78 79 79 80 79 81 82 78 77 82 81 77 80 84 83 81 81 81 81 80 79 79 79 78 78 78 78
61 61 62 62 62 63 63 63 63 63 63 63 63 64 65 65 65 65 66 66 66 66 66 67 67 67 69 70 71 71 72 73 75 75 75 76 77 78 79 79 81 82 83 84 84 84 84 81 80 81 81 80 81 81 81 83 82 81 81 80 79 79 79 79 79 80 83 85 81 79 83 82 79 81 84 84 84 83 82 81 80 79 79 78 78 79 79 79
65 65 66 66 66 67 68 68 68 68 68 68 68 68 69 69 70 70 70 71 71 72 71 71 71 71 72 73 73 73 74 74 75 76 76 76 77 78 78 79 81 82 83 84 85 86 86 83 82 84 83 82 83 83 84 85 85 83 83 81 80 80 80 79 80 82 86 87 83 82 83 82 81 83 85 85 84 84 83 82 80 79 79 78 79 79 80 81
71 71 71 71 71 71 72 72 73 73 73 73 73 73 73 74 75 75 75 75 76 76 77 77 76 77 77 77 77 77 77 77 77 77 77 78 78 79 80 80 81 82 83 84 85 86 87 85 85 86 86 84 82 84 86 87 86 86 84 79 79 80 80 81 83 85 88 87 84 84 84 82 81 84 86 86 85 85 84 83 82 81 80 80 81 81 82 83
76 76 76 76 76 76 76 76 76 76 76 77 78 78 78 79 79 80 80 80 80 80 81 82 82 82 82 83 83 83 83 82 81 81 81 81 81 82 82 82 82 84 84 85 86 86 87 87 86 87 89 86 82 85 89 88 88 88 81 75 77 80 81 83 86 87 87 87 86 85 85 83 84 85 86 87 87 87 86 85 85 84 83 83 84 85 85 86
80 79 79 79 78 78 80 80 80 80 80 80 81 82 82 82 83 83 83 83 83 84 84 84 85 85 85 86 88 89 89 88 87 86 86 86 85 86 86 86 86 86 86 87 88 88 89 90 89 90 92 89 84 87 91 91 92 88 78 74 79 82 83 85 87 87 88 89 89 87 86 86 87 86 86 87 88 88 88 88 87 87 86 87 87 88 89 89
Wind_Direction
172 172 172 168 165 165 163 159 155 153 152 150 148 147 145 143 141 139 136 133 131 126 120 112 107 99 90 83 77 74 71 68 64 62 60 59 58 57 55 54 54 53 52 52 51 51 51 50 49 47 45 44 43 44 44 44 44 46 46 44 42 44 49 53 56 57 58 58 59 60 61 62 63 63 62 61 60 59 61 63 63 63 66 69 71 74 76 77
175 175 175 171 167 167 165 160 158 156 155 154 153 152 150 148 147 145 143 141 138 133 128 120 113 104 94 85 79 75 72 69 67 64 61 60 59 57 55 54 54 54 53 52 52 51 51 51 50 49 46 43 41 41 43 44 43 43 45 44 41 41 43 46 50 52 54 54 55 55 56 57 59 60 61 61 60 59 59 59 59 58 59 60 64 71 74 71
177 178 177 174 170 170 167 164 162 160 159 158 158 158 156 155 153 152 151 149 147 146 140 134 123 111 100 92 86 80 75 72 69 67 64 62 60 58 55 54 53 52 52 52 51 51 51 51 50 49 48 44 39 38 41 44 44 42 43 43 41 40 39 41 44 47 49 50 51 51 51 52 53 55 56 58 58 57 55 54 53 52 53 53 54 61 67 66
181 182 181 178 173 172 170 167 165 164 164 163 164 165 163 161 160 158 157 158 158 159 156 148 138 124 111 102 96 90 84 77 72 70 67 64 62 59 56 54 52 51 51 50 50 49 49 49 50 49 48 45 39 37 39 42 44 43 41 40 39 39 39 38 41 43 45 46 47 47 47 47 48 49 51 53 54 54 52 50 48 46 48 48 47 48 53 54
184 186 185 182 177 175 174 171 169 169 169 170 171 171 169 168 167 166 166 168 169 169 165 158 150 137 123 113 106 100 93 85 77 73 70 68 63 60 57 55 53 51 50 49 49 48 48 48 48 49 48 45 39 36 38 40 43 43 41 39 36 37 38 37 38 41 42 43 43 44 44 44 44 44 46 48 50 51 50 47 44 42 42 45 46 43 41 40
187 190 190 185 180 179 178 175 174 174 175 176 178 178 175 176 177 177 178 179 180 178 173 165 155 145 134 123 116 108 101 93 85 77 73 70 66 61 58 55 53 50 49 48 48 47 47 46 47 48 47 45 40 36 37 38 40 43 43 39 35 33 35 35 36 38 39 39 39 39 40 40 40 40 41 43 45 47 48 46 43 39 38 40 43 42 37 33
189 192 193 189 183 183 183 181 179 180 181 183 185 183 184 187 187 187 188 188 188 184 178 171 161 152 143 132 123 115 107 99 90 82 76 72 67 63 58 55 52 49 47 46 46 46 46 45 45 46 46 44 40 37 38 39 38 40 43 42 35 30 28 31 34 36 37 36 35 35 34 34 35 35 36 38 40 42 44 45 43 39 36 36 39 39 34 30
191 195 197 193 187 187 188 186 186 186 188 191 190 190 193 195 194 195 197 197 195 188 182 176 168 159 151 142 133 123 113 104 94 86 78 72 67 62 57 53 50 48 45 43 43 44 44 44 43 44 43 42 39 37 38 41 38 36 40 41 36 30 23 23 27 32 35 35 34 32 30 29 28 29 29 31 34 36 38 40 40 37 34 32 33 35 32 27
194 197 199 196 191 191 192 193 193 192 195 198 196 198 200 200 200 201 203 204 202 195 188 182 177 170 162 155 145 132 121 112 100 89 78 71 64 58 53 49 46 45 43 40 39 40 41 41 41 42 42 41 38 35 35 40 41 37 38 37 34 29 21 17 18 22 28 32 34 32 28 25 23 23 23 24 27 29 32 34 36 34 32 29 28 30 29 24
196 199 202 200 196 195 197 199 200 199 201 203 203 205 206 206 207 209 210 210 205 200 196 193 190 185 180 170 158 144 133 125 110 94 79 68 60 52 47 42 39 38 38 36 35 35 36 36 38 39 41 40 38 35 34 37 41 40 40 37 32 27 22 16 13 13 17 23 29 30 26 23 20 18 18 19 20 22 25 28 30 31 30 27 25 25 25 22
198 201 204 203 200 200 200 203 207 206 206 208 208 210 211 213 215 217 218 214 209 202 200 203 203 201 201 195 183 167 155 146 124 100 79 64 54 47 41 35 31 30 31 31 30 30 30 30 31 34 37 37 37 35 32 34 37 40 40 39 34 27 20 15 12 10 8 12 20 25 23 20 17 14 13 14 14 16 19 22 25 27 27 26 23 21 21 22
200 204 206 205 204 205 204 206 211 212 212 214 213 213 216 218 220 222 223 219 213 206 203 209 211 212 217 219 215 203 194 184 155 109 70 48 41 36 32 29 26 25 24 24 24 23 23 23 24 26 30 33 33 32 30 30 33 35 35 35 33 27 18 11 8 8 5 4 8 14 16 13 12 11 9 9 9 11 14 17 20 23 24 23 21 18 16 19
202 206 208 207 207 208 208 208 213 216 217 219 219 218 220 222 225 227 227 224 218 208 208 215 217 219 226 232 232 226 219 211 207 214 21 18 18 16 16 18 20 22 20 17 16 15 15 16 17 18 22 26 28 28 27 27 28 30 30 28 26 23 19 8 1 2 1 359 359 2 5 3 2 4 4 3 2 4 9 13 17 18 19 19 17 16 12 13
203 207 209 210 210 211 212 212 214 218 220 222 223 223 223 225 228 230 230 228 223 214 216 224 225 227 234 240 241 236 229 222 223 235 264 329 351 357 357 2 10 14 13 10 8 7 8 9 10 12 15 18 20 21 21 23 24 26 26 23 19 15 15 9 360 357 356 355 351 351 355 353 353 357 358 357 355 357 2 7 13 15 15 15 13 13 10 8
204 208 211 212 213 214 215 216 216 219 222 225 226 227 227 228 230 232 232 231 228 221 223 231 234 237 242 245 246 243 238 231 229 238 254 296 329 342 346 349 357 4 6 4 2 1 3 4 6 7 8 11 13 13 14 17 18 20 23 22 17 11 9 6 2 357 353 352 346 344 346 344 347 351 351 351 348 349 354 360 7 11 12 11 10 9 8 5
206 209 212 213 215 216 218 220 220 220 223 227 229 229 230 231 232 234 233 234 233 228 228 237 241 244 248 249 248 246 244 241 241 245 257 278 308 326 335 340 347 355 358 359 358 358 359 1 2 3 3 5 6 8 9 11 11 12 15 17 15 10 7 4 1 358 354 349 342 338 336 335 339 344 345 346 344 343 346 352 1 7 8 7 6 6 4 2
210 211 213 215 216 218 220 222 223 223 224 227 231 232 232 233 235 236 236 236 237 234 232 239 246 249 251 250 246 243 243 245 248 253 262 274 293 311 322 330 337 346 351 354 355 355 357 358 358 358 359 360 1 3 4 5 5 4 5 8 10 8 6 3 359 357 353 347 340 334 331 331 334 336 338 341 340 339 340 343 352 0 4 2 2 2 360 358
214 214 215 216 217 218 220 223 226 227 227 228 230 232 233 235 237 238 238 238 239 238 237 241 249 253 253 250 245 242 241 243 249 256 265 276 285 296 308 318 324 333 341 346 349 350 353 355 354 353 354 355 356 357 358 358 357 356 355 356 358 0 2 0 357 355 352 348 341 336 332 330 331 331 333 335 335 335 335 336 341 349 355 355 355 356 354 353
217 217 218 218 219 220 221 224 227 230 232 232 232 232 233 235 238 240 239 238 240 240 241 243 250 254 253 249 245 243 243 244 249 257 265 273 281 288 296 305 312 321 329 334 339 342 346 348 348 347 349 350 351 351 352 352 350 347 345 344 344 346 351 353 352 351 350 346 342 337 333 329 328 327 328 328 328 329 331 332 334 338 343 344 344 346 346 346
220 221 221 221 221 221 223 224 227 230 234 236 235 235 235 236 239 241 240 239 239 241 243 246 250 252 252 250 246 244 244 247 251 258 264 269 276 283 289 296 303 310 317 322 327 331 335 336 337 340 342 344 346 346 345 346 346 343 340 338 337 336 338 342 343 344 344 342 340 337 334 331 328 327 325 324 323 324 326 328 330 333 335 335 335 335 336 337
224 223 224 224 223 223 224 225 227 230 233 237 238 238 238 238 240 242 242 241 240 240 243 247 250 251 250 248 247 247 246 248 253 259 264 269 274 281 286 291 296 303 308 312 316 320 323 325 327 330 334 337 339 340 340 341 342 341 339 337 335 333 331 331 332 334 335 334 334 334 333 332 330 330 328 325 324 324 325 326 327 329 330 331 330 329 329 328
229 227 226 227 226 225 225 226 228 230 232 235 238 240 241 241 242 244 244 243 242 240 241 246 249 250 248 246 247 249 249 251 255 259 265 270 275 279 283 287 291 296 301 305 308 311 314 317 320 323 326 330 332 334 334 335 335 336 337 337 335 331 326 324 323 324 324 324 325 325 326 326 327 327 327 327 327 327 327 327 326 327 327 328 327 326 324 323
232 231 230 229 228 228 228 228 229 231 233 235 238 240 242 243 244 245 245 245 243 242 241 243 247 248 248 246 246 248 250 253 256 259 263 268 274 277 280 284 288 292 297 299 302 305 308 311 313 317 321 324 326 328 329 329 330 330 332 333 333 330 324 318 315 314 313 313 315 316 317 317 319 320 322 323 325 327 327 326 326 326 327 327 326 325 323 322
235 235 234 232 231 231 231 231 232 233 235 237 238 241 242 243 244 245 246 245 244 242 241 242 244 246 246 247 247 248 250 253 256 259 262 266 270 274 277 281 285 290 294 296 299 301 303 306 309 313 316 319 321 323 323 324 325 325 326 327 329 329 325 316 308 304 304 304 306 312 314 312 312 314 316 318 321 323 323 323 323 324 325 325 325 324 323 322
237 237 236 235 234 235 235 234 235 236 237 238 240 242 244 245 245 246 246 246 244 243 242 243 244 244 244 245 246 247 249 252 255 258 261 265 268 271 274 278 283 287 290 293 296 298 300 303 305 308 311 314 317 317 318 319 320 321 321 322 323 324 324 320 309 299 297 299 301 306 310 309 308 309 311 313 315 317 319 319 319 320 321 322 322 322 322 322
237 238 239 238 237 237 238 239 239 239 240 241 242 243 245 246 247 247 247 246 245 243 242 243 245 245 244 244 245 247 248 250 253 256 259 263 266 269 272 276 281 284 287 290 292 294 297 299 301 304 306 308 310 312 313 314 316 317 317 317 318 319 320 320 316 308 299 297 296 299 303 304 304 304 306 308 310 312 313 314 315 316 317 318 319 319 320 319
236 238 239 240 240 239 239 241 242 243 243 243 244 245 245 246 247 247 247 247 245 243 242 243 245 246 246 245 245 246 248 250 252 255 258 262 265 269 272 275 278 281 283 286 288 290 293 295 297 299 301 303 305 307 308 310 311 312 312 313 313 314 315 315 317 315 309 301 294 292 294 298 300 299 300 304 305 307 308 309 310 312 313 314 315 316 316 317
238 238 238 239 241 242 241 241 242 244 246 246 246 246 246 246 247 247 247 247 246 245 244 244 245 246 246 246 246 247 248 251 253 255 258 260 263 267 270 272 275 278 280 282 285 287 289 291 293 295 297 299 301 302 304 305 307 308 309 309 309 310 312 312 313 313 312 307 297 289 287 289 294 295 295 298 301 302 304 304 306 308 310 311 312 313 313 314
242 240 239 239 240 242 243 243 243 244 245 247 248 247 247 247 247 247 247 247 247 247 246 246 246 247 247 247 247 247 249 251 253 256 258 259 261 264 266 269 272 275 277 280 283 285 286 288 290 291 293 295 297 298 299 301 303 304 305 306 306 307 308 309 310 310 309 308 301 292 286 282 286 291 292 293 296 298 298 299 301 303 305 306 308 309 311 312
246 244 242 241 241 242 243 244 244 244 245 246 248 248 248 248 247 247 247 246 247 247 247 247 247 248 249 249 248 248 250 251 253 255 257 259 260 262 264 267 270 272 275 278 280 282 284 285 287 288 290 292 293 294 296 298 299 301 302 302 303 304 305 306 307 307 307 307 305 299 290 283 282 285 288 289 291 293 294 295 297 298 300 302 304 306 307 309
249 248 246 244 244 244 244 244 244 244 245 246 247 248 249 249 248 246 246 245 245 245 246 246 248 250 251 251 251 252 252 253 255 256 258 260 261 262 264 266 268 271 273 276 278 279 281 283 285 286 288 289 291 292 294 295 297 298 299 299 300 300 301 303 304 305 305 305 305 302 296 291 286 284 286 288 289 290 291 292 293 295 296 298 300 302 304 306
250 250 249 247 246 246 246 246 245 244 245 246 247 248 248 249 248 247 246 245 244 244 246 247 249 251 252 253 254 255 255 256 257 258 260 261 263 264 266 267 268 270 272 274 276 277 279 282 283 285 286 287 289 290 292 294 295 296 297 297 297 297 299 300 301 302 303 303 304 302 298 295 290 287 288 289 289 289 290 291 293 294 295 296 298 300 302 303
250 250 251 250 249 248 248 248 248 247 245 245 247 247 248 248 248 248 247 246 244 245 246 247 249 251 253 254 255 256 257 258 259 260 261 263 264 266 267 269 270 271 272 273 275 277 278 279 281 283 285 286 287 289 290 292 293 295 296 296 296 296 297 298 298 299 300 301 302 301 298 295 291 289 290 289 289 289 290 292 293 293 294 295 298 300 301 302
251 251 251 251 251 251 250 249 249 249 249 247 247 247 248 248 249 249 248 247 246 246 247 248 249 251 252 254 255 256 257 258 260 261 262 264 265 267 268 270 271 271 272 273 274 276 277 278 280 282 283 285 286 288 289 290 291 292 293 293 294 295 295 295 296 297 298 299 300 300 297 294 292 291 292 291 290 290 291 292 292 292 294 296 298 300 300 300
253 252 252 252 252 252 252 252 251 250 250 250 249 249 248 248 249 250 250 249 248 248 249 250 251 252 253 254 255 256 257 258 259 261 262 264 265 266 268 269 270 271 271 272 273 274 276 277 279 281 282 284 285 287 288 289 290 291 291 291 293 293 293 294 294 295 296 297 298 298 295 293 292 292 293 291 290 291 291 291 291 293 295 297 298 299 299 300
254 254 254 253 253 253 252 253 253 252 252 251 251 251 251 250 250 250 250 251 251 250 251 252 252 253 255 256 257 258 258 259 260 261 262 264 265 266 268 269 270 270 271 272 272 273 274 276 278 279 281 283 284 285 287 288 289 289 289 290 291 291 291 292 293 294 294 295 296 295 293 292 292 292 292 291 291 291 291 291 292 294 296 297 297 298 299 300
254 254 255 255 254 254 253 253 253 254 253 253 252 252 252 252 251 251 252 252 252 252 253 253 254 255 256 257 258 259 260 260 261 262 263 264 266 267 268 269 270 271 271 272 273 273 274 275 277 278 280 281 282 283 285 286 287 287 287 288 289 289 290 291 291 292 292 293 294 293 291 291 291 291 290 290 290 291 291 292 294 296 296 297 298 300 300 300
255 254 255 255 255 255 255 255 254 254 254 254 254 254 253 253 253 252 253 253 253 254 254 255 255 256 257 258 258 259 260 261 262 263 264 265 266 267 268 269 270 271 272 273 274 274 275 276 276 277 279 280 281 282 283 284 284 285 286 286 286 287 287 288 289 290 290 290 291 290 290 290 290 290 290 289 289 289 291 293 295 296 297 298 299 300 300 301
259 257 255 255 255 256 256 257 256 256 255 255 255 255 255 255 255 254 254 254 254 254 255 256 256 257 258 259 260 260 261 262 263 264 264 265 266 267 268 269 270 272 273 274 274 275 275 276 277 277 278 279 280 281 282 282 283 284 284 284 285 285 285 286 287 288 288 288 288 287 288 287 287 288 289 288 287 288 290 292 294 295 297 298 299 299 300 301
263 261 259 256 256 256 256 257 257 257 257 257 257 256 256 256 256 255 255 255 255 255 256 256 257 257 258 259 260 261 262 263 264 264 265 266 266 267 268 269 270 271 272 273 274 275 276 276 277 277 278 279 279 281 281 281 281 282 282 283 283 284 284 285 286 285 285 286 286 286 287 286 285 286 286 285 286 287 289 291 292 293 295 296 296 297 298 299
262 262 261 259 258 256 256 256 256 257 258 258 258 258 258 258 257 256 256 256 257 257 257 258 258 258 259 259 260 261 261 262 263 264 265 265 266 267 267 269 270 270 271 272 273 274 275 276 277 278 278 277 278 280 280 281 281 281 281 282 282 283 283 284 284 284 284 285 286 287 287 286 285 285 283 283 285 286 288 289 290 292 293 293 295 296 297 298
262 262 262 261 260 258 257 257 256 256 257 257 258 259 259 259 259 259 258 257 257 257 258 258 258 259 259 260 260 261 261 262 263 264 264 265 265 266 267 267 268 269 270 271 272 273 274 275 275 277 277 277 278 279 279 280 281 281 281 282 282 283 283 283 283 283 283 284 285 286 288 286 284 284 284 283 284 285 287 288 289 291 292 293 294 295 296 297
264 263 264 264 263 262 260 259 258 257 257 257 257 258 259 259 260 260 260 259 259 258 258 258 258 259 259 260 260 261 262 262 263 264 264 265 265 266 267 267 268 268 269 270 271 272 273 274 275 276 276 277 278 278 278 278 279 280 281 282 282 283 282 282 283 283 284 284 284 285 286 286 284 283 283 283 284 285 287 288 289 290 291 292 293 294 295 296
265 264 264 265 265 265 264 263 262 261 260 259 258 258 258 259 259 260 261 261 261 260 260 260 259 260 260 260 261 261 262 262 262 263 264 265 266 266 267 268 268 269 269 270 271 272 272 273 274 275 275 276 277 277 277 277 278 279 280 280 281 282 282 283 283 283 284 285 285 285 286 285 283 282 282 282 284 286 287 288 289 290 291 292 293 294 295 296
266 266 266 265 265 265 265 265 265 264 264 263 262 261 260 259 259 260 260 261 261 261 262 262 261 261 261 261 262 262 262 262 262 263 264 264 265 266 267 268 269 269 270 270 270 271 271 272 273 274 274 275 276 276 276 276 277 278 279 280 280 280 281 282 282 283 284 285 284 286 285 283 283 283 283 282 284 286 287 288 288 290 291 292 293 294 295 295
267 267 267 267 267 266 266 266 265 265 265 265 265 264 263 262 261 261 260 261 261 261 261 262 262 263 263 263 263 263 263 263 263 263 264 264 265 266 267 268 269 269 270 270 270 270 271 272 273 273 274 274 275 275 275 276 276 277 277 278 279 279 280 281 281 283 284 283 284 285 283 282 283 285 284 284 285 286 287 288 289 290 291 292 293 294 295 295
266 266 267 267 267 268 267 267 267 266 266 266 266 266 266 266 265 264 263 262 262 262 262 262 262 263 263 263 263 263 263 264 264 264 264 265 265 266 266 267 268 269 270 270 270 271 271 271 272 272 273 273 273 274 274 275 276 276 276 276 277 278 279 280 281 283 283 282 283 282 281 282 284 284 284 286 286 286 287 288 290 291 291 292 293 294 294 295
266 266 266 266 266 266 267 266 266 266 266 266 266 266 267 267 267 267 267 266 265 264 264 263 263 263 263 263 263 263 263 263 264 264 264 265 265 266 266 266 267 268 269 270 270 271 271 271 271 271 272 272 273 273 273 274 274 275 275 276 276 277 277 279 281 281 280 280 281 281 281 283 284 283 284 285 285 286 287 288 289 290 291 292 293 293 294 294
267 266 265 265 265 265 265 265 265 265 266 266 266 266 267 267 267 268 268 268 268 268 267 266 265 265 264 263 263 263 263 263 264 264 265 265 265 265 265 266 266 266 267 268 269 269 270 271 271 271 271 271 271 272 273 273 273 273 274 275 276 277 278 278 279 278 277 278 280 280 281 282 283 283 283 283 284 286 287 288 288 289 290 291 291 292 293 293
269 268 266 266 265 265 265 265 265 265 266 266 266 266 267 267 268 268 268 269 269 270 270 269 268 268 267 266 265 264 264 263 263 264 264 265 265 265 265 265 266 266 267 268 268 269 270 271 271 271 271 270 271 272 272 272 272 272 273 275 277 278 279 278 277 276 276 278 279 279 280 281 281 281 282 283 284 285 286 287 288 289 289 290 290 291 292 293
269 268 268 267 266 266 265 265 265 265 265 266 266 266 266 266 267 268 269 269 269 269 270 270 270 270 270 270 269 268 267 265 264 264 263 263 264 265 265 265 266 266 267 268 269 270 270 271 271 272 272 271 271 272 272 271 271 271 273 277 279 279 278 277 277 277 278 279 279 279 280 280 280 280 282 284 285 286 286 287 288 289 290 290 291 291 292 293
268 268 268 267 266 266 266 266 265 265 265 265 266 265 265 265 266 267 268 269 270 270 269 270 270 270 270 270 270 270 269 269 268 267 266 265 264 264 265 265 265 266 267 267 268 269 270 270 270 270 271 270 270 271 272 271 271 272 276 278 277 277 277 277 277 279 280 280 279 280 280 280 280 281 282 283 284 286 287 288 289 290 290 291 291 292 292 293
Height
10815 10817 10818 10820 10821 10822 10823 10824 10825 10825 10826 10827 10827 10828 10829 10829 10830 10830 10830 10830 10830 10830 10830 10830 10830 10830 10829 10829 10828 10827 10827 10825 10824 10824 10823 10822 10821 10819 10818 10817 10816 10814 10813 10811 10810 10808 10807 10806 10804 10803 10802 10800 10799 10798 10796 10795 10793 10792 10790 10788 10787 10785 10783 10781 10780 10779 10778 10778 10777 10777 10777 10776 10776 10776 10776 10777 10777 10777 10778 10778 10777 10777 10776 10777 10776 10775 10775 10774
10815 10816 10818 10819 10821 10822 10823 10824 10825 10825 10826 10827 10827 10828 10829 10829 10829 10830 10830 10830 10830 10830 10830 10830 10830 10830 10829 10829 10828 10828 10827 10826 10825 10824 10823 10822 10821 10820 10819 10818 10816 10815 10814 10812 10811 10809 10808 10807 10806 10805 10803 10802 10801 10800 10798 10797 10795 10794 10792 10791 10790 10788 10786 10784 10782 10781 10780 10780 10779 10779 10779 10779 10779 10778 10778 10778 10779 10779 10779 10779 10779 10778 10778 10779 10778 10777 10776 10776
10815 10816 10818 10819 10820 10822 10823 10824 10824 10825 10826 10827 10827 10828 10829 10829 10829 10830 10830 10830 10830 10830 10830 10830 10830 10830 10829 10829 10829 10828 10827 10827 10826 10825 10824 10823 10822 10821 10820 10818 10817 10816 10815 10813 10812 10811 10809 10808 10807 10806 10805 10803 10802 10801 10800 10799 10797 10795 10793 10793 10792 10790 10788 10787 10785 10783 10782 10782 10781 10781 10781 10781 10781 10780 10780 10780 10780 10780 10781 10781 10780 10780 10780 10780 10780 10779 10778 10778
10814 10816 10817 10819 10820 10821 10822 10823 10824 10825 10826 10827 10827 10828 10828 10829 10829 10830 10830 10830 10830 10830 10830 10830 10830 10830 10830 10830 10829 10828 10828 10827 10826 10826 10825 10824 10823 10822 10821 10819 10818 10817 10816 10814 10813 10812 10811 10809 10808 10807 10806 10805 10804 10803 10802 10800 10799 10797 10795 10794 10793 10792 10791 10789 10788 10787 10785 10784 10783 10783 10783 10783 10783 10783 10783 10782 10782 10782 10783 10782 10782 10781 10781 10782 10781 10781 10780 10780
10814 10815 10817 10818 10820 10821 10822 10823 10824 10825 10826 10826 10827 10828 10828 10829 10829 10829 10830 10830 10830 10830 10830 10830 10830 10830 10830 10830 10830 10829 10828 10828 10827 10826 10826 10825 10824 10823 10822 10820 10819 10818 10817 10816 10815 10813 10812 10811 10810 10808 10807 10806 10805 10804 10803 10802 10801 10799 10797 10796 10795 10794 10793 10792 10790 10789 10788 10787 10786 10786 10785 10784 10785 10785 10785 10785 10784 10784 10784 10784 10783 10782 10782 10782 10782 10782 10782 10782
10813 10814 10816 10818 10819 10821 10822 10823 10824 10825 10825 10826 10827 10827 10828 10828 10829 10829 10829 10830 10830 10830 10830 10830 10830 10830 10830 10830 10830 10829 10829 10828 10828 10827 10826 10825 10825 10824 10823 10822 10820 10819 10818 10817 10816 10815 10814 10813 10812 10810 10809 10808 10806 10805 10804 10803 10802 10801 10799 10798 10797 10796 10795 10794 10793 10791 10789 10788 10788 10788 10787 10786 10786 10787 10787 10787 10787 10786 10786 10785 10785 10784 10783 10783 10784 10784 10783 10783
10813 10814 10815 10817 10819 10820 10821 10823 10824 10824 10825 10826 10826 10827 10827 10828 10828 10828 10829 10829 10829 10829 10829 10830 10830 10830 10830 10830 10830 10830 10829 10828 10828 10827 10827 10826 10825 10824 10824 10823 10822 10821 10820 10818 10817 10816 10815 10814 10813 10812 10810 10809 10808 10806 10805 10804 10803 10802 10801 10800 10799 10798 10797 10796 10795 10792 10791 10789 10789 10789 10788 10788 10787 10787 10788 10788 10788 10788 10787 10787 10786 10785 10785 10785 10785 10785 10784 10784
10812 10813 10814 10816 10818 10820 10821 10822 10823 10824 10824 10825 10825 10826 10827 10827 10827 10828 10828 10828 10829 10829 10829 10829 10830 10830 10830 10830 10830 10829 10829 10828 10828 10827 10827 10826 10826 10825 10824 10823 10823 10822 10821 10820 10819 10818 10817 10816 10815 10813 10812 10810 10809 10807 10806 10805 10804 10803 10802 10801 10801 10800 10798 10797 10796 10794 10793 10791 10790 10790 10789 10789 10788 10788 10788 10788 10788 10788 10788 10787 10787 10786 10786 10785 10785 10785 10785 10784
10811 10812 10814 10815 10817 10819 10820 10821 10822 10823 10824 10824 10825 10825 10826 10826 10827 10827 10827 10828 10828 10828 10829 10829 10829 10829 10829 10829 10829 10829 10829 10828 10828 10827 10827 10827 10826 10825 10824 10824 10823 10823 10822 10821 10820 10819 10818 10817 10816 10815 10813 10812 10810 10809 10808 10807 10806 10804 10802 10801 10801 10801 10800 10798 10797 10795 10794 10793 10792 10791 10790 10790 10789 10788 10788 10788 10788 10788 10788 10787 10787 10787 10786 10785 10785 10785 10785 10784
10811 10812 10813 10814 10816 10818 10819 10820 10821 10822 10823 10823 10824 10824 10825 10826 10826 10826 10827 10827 10827 10828 10828 10828 10828 10829 10829 10829 10829 10829 10828 10828 10828 10827 10827 10826 10826 10825 10824 10824 10823 10823 10822 10822 10821 10820 10819 10818 10817 10816 10815 10813 10812 10810 10809 10808 10807 10805 10803 10802 10801 10801 10801 10800 10798 10796 10795 10794 10793 10792 10791 10791 10790 10789 10788 10788 10788 10788 10788 10788 10787 10787 10786 10785 10784 10784 10784 10784
10810 10811 10812 10813 10815 10817 10818 10819 10820 10821 10822 10822 10823 10824 10824 10825 10825 10825 10826 10826 10826 10827 10827 10827 10827 10828 10828 10828 10828 10828 10828 10827 10827 10827 10827 10826 10826 10825 10824 10824 10823 10823 10822 10822 10821 10821 10820 10819 10818 10817 10816 10815 10813 10811 10810 10809 10808 10807 10804 10803 10802 10801 10801 10800 10799 10797 10795 10794 10794 10793 10793 10792 10791 10790 10789 10788 10788 10788 10788 10788 10787 10787 10787 10785 10784 10783 10783 10783
10809 10810 10811 10812 10814 10815 10817 10818 10818 10819 10820 10821 10822 10823 10823 10824 10824 10824 10825 10825 10825 10826 10826 10826 10826 10827 10827 10827 10827 10827 10827 10826 10826 10826 10826 10826 10825 10825 10824 10824 10823 10822 10822 10821 10821 10820 10820 10819 10818 10817 10816 10815 10814 10812 10811 10809 10808 10807 10806 10804 10802 10801 10800 10800 10800 10798 10796 10794 10794 10794 10793 10792 10792 10791 10790 10789 10789 10788 10788 10787 10787 10787 10786 10785 10784 10783 10782 10782
10808 10809 10810 10811 10812 10814 10815 10816 10817 10818 10819 10820 10821 10821 10822 10823 10823 10823 10824 10824 10825 10825 10825 10825 10826 10826 10826 10826 10826 10826 10826 10826 10826 10825 10825 10825 10825 10824 10824 10824 10823 10822 10821 10821 10820 10820 10819 10819 10818 10817 10816 10815 10814 10813 10812 10810 10808 10807 10806 10805 10803 10801 10801 10800 10799 10798 10797 10796 10794 10793 10793 10792 10791 10791 10790 10789 10789 10788 10788 10787 10787 10786 10785 10784 10783 10782 10781 10781
10806 10807 10808 10810 10811 10812 10813 10815 10816 10817 10818 10819 10819 10820 10821 10821 10822 10822 10822 10823 10823 10824 10824 10824 10824 10825 10825 10825 10825 10825 10825 10825 10825 10824 10824 10824 10824 10823 10823 10823 10822 10822 10821 10820 10820 10819 10818 10818 10817 10817 10816 10815 10815 10814 10812 10811 10809 10808 10807 10806 10804 10802 10802 10801 10799 10798 10797 10796 10794 10793 10792 10792 10791 10790 10790 10789 10788 10788 10788 10787 10787 10786 10785 10784 10783 10782 10781 10780
10805 10806 10807 10808 10810 10811 10812 10813 10814 10815 10816 10817 10818 10819 10819 10820 10821 10821 10821 10821 10822 10823 10823 10823 10823 10823 10824 10824 10824 10824 10824 10824 10823 10823 10823 10823 10822 10822 10822 10822 10821 10821 10820 10820 10819 10818 10818 10817 10816 10816 10815 10815 10815 10814 10813 10811 10810 10808 10808 10807 10805 10803 10802 10801 10800 10798 10797 10795 10794 10793 10792 10792 10791 10790 10789 10788 10788 10787 10787 10787 10786 10785 10784 10783 10782 10781 10780 10780
10803 10804 10805 10807 10808 10809 10810 10811 10812 10814 10815 10815 10816 10817 10818 10819 10819 10820 10820 10820 10820 10821 10822 10821 10822 10822 10822 10822 10822 10822 10823 10822 10822 10822 10822 10821 10821 10821 10821 10821 10820 10820 10819 10819 10818 10818 10817 10816 10815 10815 10815 10815 10814 10814 10813 10811 10810 10809 10808 10807 10806 10805 10803 10801 10799 10798 10797 10795 10793 10792 10791 10791 10790 10790 10789 10788 10787 10787 10787 10786 10785 10784 10783 10782 10781 10781 10780 10779
10802 10803 10804 10805 10806 10807 10809 10810 10811 10812 10813 10814 10815 10816 10816 10817 10818 10818 10818 10819 10819 10820 10820 10820 10820 10820 10821 10821 10821 10821 10821 10821 10821 10821 10820 10820 10820 10819 10819 10819 10819 10819 10818 10818 10818 10817 10816 10815 10815 10814 10814 10814 10813 10813 10812 10811 10810 10809 10809 10808 10807 10806 10804 10802 10800 10799 10797 10795 10794 10792 10791 10789 10788 10788 10788 10787 10787 10786 10785 10784 10784 10784 10783 10781 10781 10780 10779 10779
10800 10801 10802 10803 10804 10805 10807 10808 10809 10810 10811 10812 10813 10814 10815 10815 10816 10816 10817 10817 10817 10818 10818 10819 10818 10819 10819 10819 10819 10819 10819 10819 10819 10819 10819 10818 10818 10818 10818 10818 10818 10818 10817 10817 10817 10816 10815 10814 10814 10813 10813 10813 10812 10812 10811 10811 10810 10810 10809 10808 10807 10806 10805 10803 10801 10799 10797 10796 10794 10792 10791 10789 10788 10787 10786 10785 10785 10784 10783 10782 10782 10782 10782 10781 10780 10779 10779 10778
10798 10799 10800 10801 10802 10803 10805 10806 10807 10808 10809 10810 10811 10812 10813 10813 10814 10814 10815 10815 10815 10816 10816 10817 10817 10817 10817 10817 10817 10817 10817 10817 10817 10817 10817 10817 10817 10816 10816 10816 10816 10816 10816 10816 10816 10815 10815 10814 10813 10813 10812 10812 10811 10811 10811 10810 10810 10809 10808 10807 10806 10806 10805 10804 10802 10800 10798 10796 10794 10793 10791 10790 10788 10787 10785 10784 10783 10782 10781 10780 10780 10779 10779 10779 10778 10778 10777 10777
10796 10797 10798 10799 10800 10801 10802 10804 10805 10806 10807 10808 10809 10810 10811 10811 10812 10812 10813 10813 10813 10814 10814 10815 10815 10815 10815 10815 10815 10815 10815 10815 10815 10815 10815 10815 10815 10815 10814 10814 10814 10814 10814 10814 10814 10814 10813 10813 10813 10812 10811 10811 10810 10810 10810 10809 10809 10808 10807 10806 10805 10804 10803 10803 10801 10800 10798 10796 10794 10792 10791 10789 10788 10787 10786 10785 10783 10781 10779 10778 10777 10777 10776 10776 10776 10775 10775 10775
10794 10795 10797 10797 10798 10799 10800 10801 10803 10804 10805 10806 10807 10808 10808 10809 10809 10810 10810 10811 10811 10811 10812 10812 10813 10813 10813 10813 10813 10813 10813 10813 10813 10813 10813 10813 10813 10812 10812 10812 10812 10812 10812 10812 10812 10812 10812 10812 10811 10811 10810 10810 10809 10809 10809 10808 10808 10807 10806 10805 10804 10803 10802 10801 10800 10798 10797 10795 10793 10791 10790 10788 10787 10786 10785 10784 10782 10780 10777 10775 10774 10773 10773 10773 10773 10772 10772 10772
10792 10793 10795 10796 10796 10797 10798 10799 10800 10801 10802 10803 10804 10805 10806 10806 10807 10807 10808 10808 10809 10809 10809 10810 10810 10810 10811 10811 10811 10811 10811 10811 10811 10811 10811 10810 10810 10810 10810 10810 10810 10810 10810 10809 10809 10809 10809 10809 10809 10809 10808 10808 10807 10807 10807 10807 10806 10806 10805 10804 10803 10802 10800 10799 10798 10797 10795 10794 10792 10790 10789 10787 10786 10785 10784 10782 10781 10779 10777 10774 10772 10771 10771 10770 10770 10769 10769 10769
10790 10791 10792 10793 10794 10795 10796 10797 10798 10799 10800 10801 10801 10802 10803 10804 10804 10805 10805 10806 10806 10806 10807 10807 10807 10808 10808 10808 10809 10809 10809 10809 10809 10809 10808 10808 10808 10808 10808 10807 10807 10807 10807 10807 10807 10807 10807 10807 10806 10806 10806 10805 10805 10805 10805 10804 10804 10804 10803 10803 10802 10801 10800 10798 10797 10796 10795 10793 10790 10788 10787 10786 10785 10783 10782 10781 10779 10778 10776 10773 10771 10770 10769 10768 10767 10766 10766 10765
10788 10789 10790 10791 10792 10793 10794 10795 10796 10796 10797 10798 10799 10799 10800 10801 10801 10802 10802 10802 10803 10803 10804 10804 10805 10805 10805 10805 10806 10806 10806 10806 10806 10806 10806 10806 10806 10805 10805 10805 10804 10804 10804 10804 10804 10804 10804 10804 10803 10803 10803 10802 10802 10802 10802 10802 10801 10801 10801 10801 10800 10799 10798 10797 10796 10795 10793 10791 10789 10786 10784 10782 10782 10781 10780 10778 10777 10775 10774 10772 10770 10768 10767 10766 10765 10764 10763 10762
10785 10786 10787 10788 10789 10790 10791 10792 10793 10793 10794 10795 10796 10797 10797 10798 10798 10799 10799 10799 10800 10800 10801 10801 10802 10802 10802 10802 10802 10803 10803 10803 10803 10803 10803 10803 10803 10803 10802 10802 10802 10801 10801 10801 10801 10800 10800 10801 10800 10800 10800 10800 10799 10799 10799 10798 10798 10798 10798 10797 10797 10797 10796 10795 10794 10793 10791 10789 10787 10785 10782 10779 10778 10777 10777 10776 10774 10773 10771 10770 10768 10766 10765 10764 10763 10762 10760 10759
10782 10783 10784 10785 10786 10787 10788 10788 10790 10790 10791 10792 10793 10793 10794 10795 10795 10795 10796 10796 10796 10797 10797 10798 10799 10799 10799 10799 10799 10800 10800 10800 10800 10800 10800 10800 10800 10799 10799 10799 10799 10799 10798 10798 10798 10797 10797 10797 10797 10797 10797 10797 10797 10796 10796 10795 10795 10795 10794 10794 10794 10794 10794 10793 10792 10790 10788 10786 10784 10783 10782 10778 10775 10773 10773 10773 10772 10770 10769 10767 10765 10764 10762 10761 10760 10759 10758 10756
10779 10780 10781 10782 10782 10783 10784 10785 10786 10787 10788 10788 10789 10790 10790 10791 10791 10792 10792 10792 10793 10794 10794 10795 10795 10796 10796 10796 10797 10796 10796 10796 10797 10796 10797 10797 10796 10796 10796 10796 10796 10796 10795 10795 10795 10794 10794 10794 10794 10794 10793 10793 10793 10793 10793 10792 10792 10791 10791 10790 10790 10790 10790 10789 10789 10787 10786 10784 10782 10780 10780 10777 10773 10770 10770 10770 10769 10768 10766 10764 10763 10761 10760 10758 10756 10756 10754 10753
10775 10776 10777 10778 10779 10779 10780 10781 10782 10783 10784 10784 10785 10786 10786 10787 10787 10788 10788 10789 10790 10790 10791 10791 10792 10792 10793 10793 10793 10793 10793 10793 10793 10793 10793 10793 10793 10793 10793 10792 10792 10792 10792 10792 10791 10791 10790 10790 10790 10790 10790 10789 10790 10790 10789 10789 10789 10788 10787 10787 10786 10786 10785 10785 10785 10784 10783 10781 10779 10778 10776 10775 10772 10767 10765 10767 10766 10765 10763 10761 10760 10759 10757 10755 10753 10752 10751 10749
10771 10772 10773 10775 10775 10776 10776 10777 10778 10779 10780 10781 10781 10782 10782 10783 10783 10784 10784 10785 10786 10787 10788 10788 10788 10789 10789 10789 10790 10790 10790 10790 10790 10789 10790 10790 10790 10790 10789 10789 10789 10789 10788 10788 10788 10787 10787 10787 10786 10786 10786 10786 10786 10786 10785 10785 10785 10784 10784 10783 10782 10781 10781 10780 10780 10780 10780 10778 10776 10775 10773 10772 10770 10764 10761 10763 10762 10761 10760 10758 10757 10756 10754 10753 10751 10749 10747 10746
10766 10768 10769 10770 10771 10772 10772 10773 10774 10775 10776 10777 10777 10777 10778 10778 10779 10779 10780 10781 10783 10784 10784 10784 10784 10784 10785 10785 10785 10786 10786 10786 10786 10786 10786 10786 10786 10786 10786 10786 10786 10785 10785 10784 10784 10784 10783 10783 10782 10782 10782 10782 10782 10782 10781 10781 10781 10780 10780 10779 10778 10777 10776 10776 10775 10775 10775 10774 10772 10771 10769 10768 10767 10762 10758 10758 10758 10757 10755 10754 10753 10752 10751 10749 10748 10746 10744 10742
10762 10763 10764 10766 10767 10767 10768 10769 10769 10771 10772 10772 10773 10773 10774 10774 10774 10775 10776 10778 10779 10779 10779 10779 10780 10780 10781 10781 10781 10781 10782 10782 10782 10782 10781 10781 10782 10782 10782 10782 10782 10781 10781 10781 10781 10780 10779 10778 10778 10778 10778 10778 10777 10777 10777 10776 10776 10775 10775 10774 10774 10773 10772 10771 10770 10770 10769 10769 10769 10766 10764 10763 10761 10758 10755 10753 10753 10752 10751 10750 10749 10748 10747 10745 10744 10743 10741 10739
10757 10759 10760 10761 10762 10763 10764 10764 10765 10766 10767 10767 10768 10768 10769 10769 10769 10770 10771 10773 10774 10774 10774 10775 10776 10776 10776 10777 10777 10777 10777 10778 10778 10777 10777 10777 10777 10777 10777 10777 10777 10777 10777 10777 10776 10776 10775 10774 10773 10773 10773 10773 10772 10772 10772 10771 10770 10769 10769 10768 10768 10767 10767 10767 10765 10765 10763 10763 10764 10762 10759 10758 10755 10752 10750 10748 10747 10746 10745 10745 10743 10742 10741 10740 10739 10738 10737 10735
10753 10754 10755 10756 10757 10759 10759 10760 10760 10761 10762 10763 10763 10763 10764 10764 10764 10766 10767 10768 10769 10769 10770 10770 10771 10771 10771 10772 10772 10772 10772 10772 10772 10772 10772 10772 10772 10772 10772 10772 10772 10772 10772 10772 10771 10771 10770 10769 10769 10769 10768 10767 10767 10766 10767 10766 10765 10764 10762 10761 10762 10761 10761 10762 10760 10759 10758 10757 10758 10757 10754 10753 10749 10747 10745 10742 10741 10740 10739 10739 10738 10736 10735 10735 10734 10733 10732 10730
10748 10750 10750 10751 10752 10753 10754 10755 10755 10756 10757 10757 10758 10758 10759 10759 10760 10761 10762 10763 10764 10764 10764 10765 10765 10766 10766 10766 10766 10766 10766 10767 10767 10767 10767 10767 10767 10767 10766 10766 10766 10766 10766 10766 10766 10766 10764 10764 10764 10763 10763 10762 10761 10760 10760 10760 10760 10759 10757 10755 10755 10754 10754 10755 10754 10754 10752 10751 10753 10752 10749 10747 10743 10742 10740 10736 10733 10733 10733 10733 10732 10730 10730 10729 10728 10727 10726 10724
10744 10745 10746 10746 10747 10748 10749 10749 10750 10751 10752 10752 10752 10753 10753 10754 10755 10755 10756 10757 10758 10758 10759 10758 10759 10760 10759 10760 10760 10759 10760 10761 10761 10760 10761 10762 10761 10761 10761 10760 10759 10759 10759 10760 10761 10760 10759 10758 10758 10757 10757 10756 10754 10754 10753 10752 10753 10754 10751 10749 10749 10748 10747 10748 10748 10748 10746 10745 10747 10746 10743 10740 10738 10736 10734 10729 10726 10726 10726 10726 10725 10724 10724 10723 10722 10721 10719 10718
10740 10740 10741 10741 10742 10742 10743 10744 10744 10745 10746 10747 10747 10747 10748 10749 10749 10750 10751 10751 10751 10753 10752 10752 10753 10753 10753 10754 10753 10753 10754 10755 10755 10754 10755 10755 10754 10755 10754 10752 10752 10751 10752 10753 10754 10754 10753 10752 10753 10751 10750 10751 10748 10748 10748 10745 10745 10746 10745 10744 10743 10741 10739 10740 10741 10741 10740 10739 10741 10741 10737 10735 10732 10731 10729 10722 10718 10718 10718 10717 10718 10718 10717 10717 10716 10714 10713 10710
10735 10735 10735 10736 10736 10736 10737 10738 10738 10739 10740 10740 10741 10741 10742 10742 10743 10744 10745 10745 10746 10746 10746 10746 10747 10746 10747 10747 10746 10747 10747 10748 10749 10748 10748 10749 10748 10749 10747 10745 10745 10744 10744 10745 10745 10747 10746 10746 10747 10745 10744 10745 10742 10741 10742 10741 10738 10738 10739 10738 10736 10734 10733 10732 10733 10734 10733 10732 10735 10735 10733 10730 10725 10724 10724 10717 10710 10710 10709 10709 10709 10709 10709 10708 10707 10706 10704 10702
10729 10729 10730 10730 10730 10730 10731 10732 10732 10732 10733 10733 10734 10735 10736 10736 10737 10738 10739 10739 10739 10739 10739 10739 10740 10740 10740 10739 10740 10740 10740 10740 10742 10742 10742 10743 10742 10742 10740 10738 10738 10737 10737 10737 10737 10739 10738 10738 10740 10740 10738 10737 10736 10735 10735 10735 10733 10730 10731 10732 10730 10728 10728 10726 10727 10727 10725 10726 10728 10728 10728 10727 10720 10716 10716 10712 10705 10702 10702 10701 10701 10700 10700 10699 10698 10696 10694 10693
10722 10723 10724 10725 10725 10725 10725 10725 10725 10726 10726 10727 10727 10728 10729 10729 10730 10732 10732 10732 10732 10733 10732 10732 10733 10733 10733 10732 10732 10733 10733 10733 10735 10735 10735 10735 10735 10734 10732 10730 10730 10730 10729 10728 10729 10730 10730 10730 10731 10733 10732 10729 10728 10729 10727 10727 10728 10724 10722 10724 10723 10722 10720 10720 10722 10722 10718 10718 10721 10722 10723 10723 10718 10712 10707 10702 10698 10697 10696 10695 10694 10693 10692 10691 10689 10687 10685 10684
10716 10716 10717 10718 10719 10719 10719 10719 10719 10719 10719 10720 10720 10721 10721 10721 10722 10724 10724 10725 10725 10725 10725 10725 10725 10726 10726 10726 10724 10726 10727 10726 10726 10727 10727 10727 10727 10725 10724 10724 10723 10723 10722 10720 10721 10721 10721 10722 10721 10723 10726 10722 10720 10722 10720 10717 10719 10718 10715 10715 10716 10714 10712 10711 10714 10716 10712 10710 10712 10714 10717 10717 10713 10711 10704 10693 10690 10691 10691 10689 10687 10686 10686 10684 10682 10680 10678 10676
10710 10709 10710 10711 10712 10713 10713 10713 10713 10713 10712 10712 10712 10713 10713 10713 10714 10716 10717 10717 10718 10718 10719 10718 10718 10718 10718 10718 10717 10717 10719 10718 10718 10718 10718 10719 10718 10716 10717 10717 10715 10714 10714 10713 10713 10712 10711 10713 10713 10714 10716 10715 10713 10715 10713 10708 10708 10709 10707 10708 10707 10706 10705 10704 10705 10706 10705 10704 10703 10703 10709 10711 10706 10704 10698 10687 10684 10685 10684 10683 10681 10680 10679 10677 10675 10673 10670 10669
10705 10704 10703 10704 10705 10706 10706 10707 10707 10706 10706 10706 10706 10705 10705 10705 10705 10706 10708 10709 10710 10710 10710 10709 10709 10710 10709 10709 10709 10709 10710 10711 10710 10709 10709 10710 10709 10708 10709 10709 10707 10706 10705 10705 10706 10705 10703 10704 10706 10706 10705 10705 10706 10707 10706 10701 10699 10698 10697 10699 10699 10698 10697 10695 10695 10697 10697 10698 10697 10693 10698 10702 10698 10695 10689 10680 10678 10678 10677 10676 10674 10673 10671 10669 10667 10665 10662 10661
10699 10698 10697 10697 10698 10699 10699 10700 10700 10700 10700 10700 10700 10699 10698 10698 10698 10698 10699 10699 10701 10701 10701 10700 10700 10700 10701 10701 10701 10701 10701 10702 10702 10701 10700 10700 10700 10700 10699 10700 10699 10698 10697 10697 10697 10697 10695 10695 10698 10698 10696 10696 10697 10698 10696 10693 10692 10690 10689 10690 10689 10689 10688 10685 10685 10687 10687 10690 10689 10686 10690 10692 10687 10686 10681 10671 10669 10670 10668 10668 10666 10664 10663 10660 10658 10656 10653 10652
10693 10693 10692 10691 10691 10691 10692 10693 10693 10692 10692 10692 10693 10692 10692 10692 10691 10691 10690 10690 10692 10692 10690 10691 10692 10691 10692 10692 10692 10692 10691 10692 10693 10693 10692 10691 10691 10691 10690 10690 10690 10689 10688 10688 10688 10688 10687 10687 10688 10689 10688 10688 10689 10688 10684 10683 10684 10682 10681 10682 10681 10679 10677 10676 10675 10674 10677 10681 10677 10674 10681 10680 10672 10675 10673 10663 10660 10661 10660 10660 10658 10655 10654 10652 10649 10647 10645 10643
10686 10686 10686 10685 10685 10685 10685 10685 10685 10685 10684 10684 10684 10684 10684 10684 10684 10684 10683 10682 10683 10683 10682 10682 10682 10683 10684 10683 10683 10682 10681 10682 10684 10684 10684 10683 10681 10682 10682 10680 10680 10679 10678 10678 10679 10679 10678 10678 10680 10680 10678 10680 10681 10677 10673 10674 10676 10674 10672 10672 10672 10670 10668 10668 10665 10664 10668 10670 10665 10664 10668 10665 10659 10660 10660 10656 10653 10652 10650 10650 10650 10647 10645 10643 10640 10638 10636 10633
10678 10679 10678 10678 10678 10678 10678 10678 10678 10677 10677 10676 10675 10675 10675 10675 10676 10676 10675 10674 10674 10674 10674 10673 10673 10674 10674 10674 10673 10672 10671 10672 10672 10674 10675 10673 10672 10674 10673 10671 10669 10668 10668 10667 10667 10667 10668 10670 10672 10670 10669 10671 10671 10667 10663 10663 10666 10667 10664 10663 10663 10661 10660 10658 10656 10657 10656 10654 10658 10658 10651 10650 10653 10648 10643 10645 10646 10643 10641 10640 10640 10639 10636 10634 10631 10629 10626 10623
10671 10672 10671 10670 10670 10670 10670 10670 10669 10669 10669 10668 10667 10666 10665 10665 10666 10666 10666 10665 10665 10665 10665 10665 10665 10666 10665 10664 10663 10663 10663 10662 10662 10663 10665 10664 10664 10665 10664 10663 10660 10657 10657 10656 10655 10655 10657 10661 10662 10659 10658 10660 10660 10658 10655 10653 10655 10656 10655 10655 10655 10653 10652 10649 10648 10650 10644 10638 10648 10650 10636 10637 10647 10639 10628 10631 10634 10632 10632 10631 10631 10630 10627 10624 10622 10619 10616 10614
10663 10664 10663 10663 10663 10662 10661 10661 10661 10661 10660 10660 10659 10658 10656 10656 10656 10655 10654 10654 10654 10655 10655 10656 10656 10656 10655 10653 10654 10654 10654 10653 10652 10653 10655 10656 10655 10654 10654 10654 10651 10649 10647 10644 10645 10643 10643 10649 10653 10648 10648 10650 10648 10647 10645 10642 10644 10645 10644 10646 10646 10644 10644 10643 10642 10641 10632 10626 10635 10638 10628 10628 10635 10629 10621 10620 10620 10620 10621 10622 10622 10620 10618 10616 10612 10609 10607 10604
10653 10654 10654 10654 10654 10654 10653 10652 10652 10651 10651 10651 10650 10649 10648 10647 10646 10645 10644 10644 10643 10642 10643 10644 10645 10644 10643 10643 10644 10643 10644 10645 10644 10643 10644 10646 10645 10644 10644 10643 10641 10640 10638 10635 10635 10632 10630 10637 10640 10634 10637 10640 10638 10637 10635 10630 10631 10634 10634 10637 10638 10634 10635 10635 10633 10628 10618 10616 10625 10627 10621 10623 10623 10615 10610 10610 10610 10610 10609 10610 10612 10610 10609 10608 10603 10601 10598 10594
10642 10643 10644 10645 10644 10644 10643 10642 10642 10642 10642 10641 10640 10640 10639 10637 10635 10634 10634 10634 10633 10632 10631 10631 10633 10632 10630 10631 10632 10632 10633 10634 10635 10635 10635 10635 10634 10632 10633 10633 10631 10629 10628 10626 10624 10622 10621 10624 10626 10621 10621 10628 10631 10626 10619 10618 10619 10620 10625 10633 10631 10625 10625 10623 10618 10613 10607 10609 10616 10614 10611 10616 10615 10605 10599 10599 10600 10600 10599 10599 10600 10600 10599 10598 10594 10591 10588 10584
10631 10631 10632 10633 10634 10633 10631 10631 10631 10631 10632 10630 10628 10629 10628 10626 10625 10624 10623 10622 10623 10622 10620 10619 10620 10621 10619 10618 10618 10618 10618 10621 10623 10625 10624 10624 10624 10621 10620 10623 10621 10618 10618 10616 10612 10613 10612 10610 10613 10609 10603 10613 10623 10612 10603 10607 10606 10606 10621 10631 10622 10614 10613 10608 10602 10601 10599 10599 10602 10602 10602 10604 10603 10598 10594 10591 10589 10588 10588 10587 10587 10587 10587 10585 10582 10580 10577 10574
10618 10619 10619 10620 10622 10623 10620 10619 10620 10620 10620 10619 10617 10616 10616 10615 10615 10614 10613 10612 10611 10610 10610 10609 10607 10608 10608 10606 10604 10603 10603 10606 10609 10610 10610 10611 10612 10611 10610 10611 10609 10608 10608 10605 10602 10603 10600 10596 10599 10597 10589 10598 10610 10600 10591 10592 10590 10600 10622 10622 10607 10601 10599 10595 10594 10593 10590 10585 10585 10590 10593 10590 10589 10589 10588 10584 10580 10578 10576 10576 10575 10575 10574 10572 10570 10567 10564 10562